Wind_Speed
13 15 15 16 19 20 20 24 24 23 26 27 26 25 25 24 24 23 23 22 22 22 21 20 19 18 18 18 18 17 17 18 17 17 17 18 18 18 17 17 16 16 16 16 16 15 15 15 15 14 14 15 14 14 14 13 12 11 11 11 9 8 9 9 8 8 8 8 8 9 10 10 11 10 10 10 10 8 8 7 7 10 12 14 14
13 16 15 15 19 21 21 22 22 23 25 26 27 25 24 24 23 22 22 21 21 21 20 19 18 18 17 17 16 16 16 17 17 17 17 17 18 17 16 16 15 16 16 16 15 14 14 14 13 14 15 15 14 14 14 13 11 9 8 8 7 7 8 8 8 8 6 6 7 7 7 8 9 9 8 9 9 8 6 6 7 10 12 14 14
15 17 16 16 19 21 21 23 23 24 25 25 25 24 24 23 22 21 21 21 20 20 20 19 18 17 16 15 14 14 15 16 16 16 17 17 17 16 15 15 15 16 16 14 14 14 14 13 13 14 15 14 14 14 13 13 12 10 8 6 5 5 6 7 7 7 6 5 5 6 6 7 8 8 8 9 10 9 7 8 10 12 13 14 14
16 17 18 18 20 21 21 23 24 24 24 24 24 23 23 23 22 21 20 20 19 19 19 18 17 16 16 14 13 14 15 15 15 16 16 16 15 15 14 15 15 15 15 14 14 15 14 13 13 14 14 12 13 13 13 12 12 11 10 7 4 4 5 7 7 6 6 5 3 4 6 5 7 7 7 9 10 9 8 10 12 12 13 14 14
17 18 19 20 20 20 20 22 23 23 22 22 23 22 21 21 21 21 20 19 19 19 18 17 17 16 15 14 14 14 15 15 15 15 15 14 14 14 14 14 14 14 14 13 14 14 14 13 12 12 12 11 12 13 12 12 11 11 11 7 6 4 4 6 6 5 6 5 2 2 5 6 7 7 8 9 10 10 10 11 11 12 11 13 13
17 18 18 20 21 20 20 21 22 22 22 21 21 21 20 20 20 20 20 20 19 18 18 17 17 16 15 14 14 14 14 15 15 15 14 14 13 13 13 13 13 13 13 12 12 13 12 11 11 10 11 11 12 13 13 12 11 11 11 8 7 6 4 5 6 6 6 5 4 2 6 7 7 7 8 10 9 10 10 11 12 12 10 11 12
17 17 18 20 21 20 20 20 21 21 21 20 20 20 20 19 19 19 19 19 19 18 17 17 17 16 15 15 15 14 14 15 15 14 14 13 12 12 12 11 11 12 12 11 11 12 12 11 11 11 10 10 11 12 12 12 12 13 13 10 8 6 4 4 5 5 6 5 5 3 7 7 7 8 9 10 9 10 10 11 12 12 10 10 11
19 17 17 18 20 20 20 20 20 19 18 19 19 20 19 18 18 18 18 18 18 17 17 17 16 16 15 15 14 14 15 15 15 14 12 10 10 11 11 10 11 12 12 12 12 11 11 11 11 11 10 10 10 11 12 12 13 14 14 13 11 8 5 5 5 5 5 5 5 5 7 7 8 9 9 10 9 9 10 10 12 12 10 10 10
20 17 17 17 18 20 20 21 19 17 17 18 18 18 17 17 17 17 17 17 17 17 17 17 16 15 14 14 14 14 14 14 14 12 9 8 10 10 9 10 11 12 12 12 10 9 8 8 8 9 9 10 10 10 11 11 12 12 13 14 12 9 7 7 7 5 4 4 4 5 7 7 8 9 7 8 9 9 9 9 10 11 11 11 10
19 17 17 17 18 19 19 19 18 17 17 18 17 17 16 16 17 16 16 16 17 16 16 17 16 15 14 14 14 14 14 13 13 9 7 8 10 9 9 10 10 11 11 9 8 7 7 6 5 6 8 8 9 9 9 11 11 11 11 12 12 10 9 8 7 5 4 3 3 4 5 6 7 8 6 7 10 9 8 8 9 10 10 11 11
18 18 18 17 19 19 18 18 17 18 17 17 17 17 16 15 17 17 15 15 16 15 14 15 15 15 14 13 13 13 13 13 12 8 6 8 9 9 10 10 10 11 10 8 7 7 7 5 4 5 7 8 8 8 7 9 10 10 9 10 10 10 10 8 5 4 2 2 3 4 4 5 7 6 6 7 9 10 8 7 7 9 9 10 11
18 18 18 18 19 19 18 17 17 18 17 17 17 18 15 14 16 17 16 14 14 12 12 13 13 13 13 12 12 12 12 12 10 6 6 8 9 9 10 10 11 11 9 8 8 9 8 6 6 7 8 8 8 8 7 7 8 8 9 8 8 8 8 7 5 3 2 3 4 6 4 5 7 5 6 7 8 9 9 7 7 8 8 9 10
19 19 19 18 19 18 17 17 16 17 17 17 17 18 16 15 16 17 16 14 13 11 11 11 12 13 12 11 10 10 10 10 9 5 5 7 8 8 9 10 11 10 9 9 9 9 9 9 9 10 8 8 8 9 8 8 6 6 8 7 7 8 8 6 4 3 4 5 5 6 5 7 7 4 5 7 7 8 8 8 7 7 7 8 9
20 19 19 18 18 18 18 17 16 16 17 16 17 17 16 16 16 16 15 13 13 10 9 10 11 13 12 10 9 9 8 9 9 5 4 6 7 8 8 9 9 8 8 8 9 9 9 10 10 8 8 8 8 9 9 7 5 6 8 8 7 9 8 4 3 4 5 5 6 6 5 7 7 3 5 6 6 7 7 8 7 6 7 8 8
20 20 19 18 18 18 18 17 17 16 17 16 16 16 15 15 14 15 14 13 11 9 9 10 11 12 11 10 9 8 7 7 6 3 3 5 6 6 8 8 8 7 7 8 9 9 9 9 9 7 7 7 6 7 7 7 6 6 8 9 9 8 7 4 3 4 4 4 6 6 5 6 9 6 4 5 6 7 7 8 8 7 7 7 8
19 20 19 18 18 18 17 17 17 16 16 15 15 14 14 13 13 13 13 13 11 9 10 10 11 11 10 9 8 7 6 5 4 3 3 5 6 6 7 8 7 7 7 8 10 11 10 9 9 7 8 7 6 7 8 8 7 6 6 8 8 8 7 6 3 3 2 3 4 4 4 6 9 8 5 5 6 6 7 8 9 8 7 7 7
18 18 19 19 18 18 17 17 17 16 16 15 14 13 12 12 12 12 12 12 12 11 10 9 9 10 9 8 8 6 5 4 3 3 2 4 5 5 6 7 7 7 7 8 10 10 9 9 7 7 9 9 8 8 8 9 8 7 7 7 8 7 7 7 4 3 3 3 3 2 4 7 8 9 6 6 6 6 7 8 9 9 8 6 6
17 18 18 18 17 17 17 17 17 17 16 16 14 13 11 11 10 10 10 10 11 10 10 9 8 9 9 8 7 5 4 3 2 2 1 2 3 3 5 6 6 7 7 8 9 8 8 7 6 7 9 9 9 9 9 10 9 8 8 7 7 6 7 7 4 3 4 4 4 2 2 7 8 9 8 6 7 6 6 7 8 9 8 7 6
16 17 17 16 16 16 16 17 17 17 16 15 14 13 11 11 10 10 9 8 9 8 9 8 8 8 7 6 5 3 2 2 1 1 1 2 2 2 4 6 6 7 7 7 7 6 7 7 7 8 9 9 9 10 10 11 11 10 9 8 6 5 6 5 2 5 4 4 5 4 2 6 8 10 10 7 7 7 6 7 8 9 9 7 7
14 15 16 16 16 16 16 16 17 17 15 14 14 14 12 10 9 8 7 7 8 8 8 8 7 6 5 5 3 2 2 2 1 1 1 2 2 2 4 6 6 7 6 6 6 5 6 7 8 9 9 9 8 9 11 12 12 12 10 8 6 4 5 3 1 4 2 3 5 4 4 5 8 10 11 8 8 8 5 6 7 8 9 9 8
13 13 14 16 16 16 15 16 16 16 14 14 13 13 12 10 9 9 8 8 7 7 7 7 7 5 4 4 3 3 3 3 2 2 2 1 3 3 3 5 6 6 5 5 5 5 7 7 9 10 9 8 7 8 9 9 11 12 11 9 7 5 5 4 2 2 1 2 4 3 4 5 7 10 11 8 9 9 7 6 7 7 8 9 9
14 13 14 14 14 15 15 15 15 15 13 13 13 12 13 11 10 10 10 9 8 7 7 7 7 6 5 4 3 4 4 4 3 3 3 3 4 4 3 4 5 5 4 5 5 6 7 7 8 9 8 7 6 6 6 7 8 10 11 9 8 7 7 7 5 3 1 1 2 2 3 4 5 8 10 9 9 8 7 7 7 7 8 8 9
14 14 14 14 13 14 14 14 14 14 13 12 12 11 12 12 11 11 11 10 10 9 8 8 7 6 6 5 4 4 4 4 4 4 3 4 5 3 2 4 3 3 4 4 5 6 6 5 6 7 5 5 5 3 4 5 6 7 8 7 7 8 9 8 6 5 3 1 1 2 2 2 4 7 9 9 9 8 8 8 8 7 8 8 8
15 15 15 14 13 13 14 13 13 14 13 11 11 11 12 12 11 11 11 11 11 10 9 8 8 7 7 6 6 5 5 4 4 3 4 6 5 4 4 3 2 1 2 1 3 4 3 3 4 4 3 3 3 3 4 5 6 7 8 8 7 8 8 7 6 6 6 3 2 4 3 1 2 5 7 8 9 10 9 9 9 8 8 8 8
15 15 15 15 15 14 14 13 13 14 13 11 11 12 12 12 11 11 11 11 10 10 10 9 9 9 8 7 7 6 5 5 5 4 5 6 5 5 7 4 4 2 1 2 1 1 1 1 2 3 4 3 4 5 6 7 8 8 8 7 7 8 8 7 7 7 7 5 3 4 4 3 4 5 6 6 8 11 11 10 11 10 10 9 9
14 14 15 15 15 14 14 14 14 14 13 12 11 11 12 11 11 11 11 10 10 10 10 10 10 10 9 8 8 7 6 6 7 6 6 6 6 8 8 5 6 4 3 4 2 1 2 2 2 3 4 5 5 6 7 7 8 8 7 6 6 7 8 8 8 8 8 5 4 6 7 5 5 7 7 7 7 10 12 12 13 13 12 11 10
14 13 15 15 14 14 14 14 14 14 13 12 11 11 11 11 10 11 11 10 10 10 10 10 9 9 9 8 8 7 7 7 8 8 7 8 8 7 6 5 6 4 3 3 2 2 2 2 3 3 4 5 6 6 7 7 7 7 7 7 7 8 8 8 7 8 8 6 6 8 8 6 5 8 8 8 8 8 10 12 14 14 14 13 12
14 13 14 15 16 15 15 15 14 15 14 13 12 10 11 11 10 10 10 10 10 10 10 9 8 8 9 9 8 8 7 8 8 7 7 8 7 6 6 7 7 5 2 3 3 2 2 2 3 3 4 5 6 7 7 7 8 8 8 8 8 8 7 7 7 7 7 6 5 6 7 5 4 6 8 9 9 9 10 12 14 16 15 16 16
15 15 14 15 16 16 16 15 15 15 14 12 12 11 11 11 10 10 10 10 10 9 9 8 8 8 9 9 9 9 8 8 8 7 7 7 6 6 7 7 7 7 4 4 3 1 2 2 3 3 4 5 6 7 7 8 9 8 8 7 8 8 8 7 7 7 7 6 5 5 6 5 4 5 8 9 9 10 10 11 13 16 17 17 18
17 16 15 15 16 16 17 16 15 14 14 13 12 11 11 11 10 10 10 10 10 9 7 8 8 8 9 9 10 10 8 8 8 8 8 7 7 6 7 6 6 7 6 5 4 2 3 3 3 3 4 6 7 7 7 9 9 8 7 6 8 9 9 9 8 7 6 6 5 5 5 5 4 5 6 8 9 10 10 10 11 14 17 17 17
17 17 16 15 16 17 17 17 16 15 14 13 13 12 11 11 11 10 10 10 10 9 9 9 9 9 9 9 9 9 9 9 9 8 8 9 8 6 6 6 5 6 5 4 5 3 2 3 3 3 5 6 6 7 7 9 8 7 7 7 8 9 9 9 9 8 6 5 6 5 5 5 5 5 6 7 8 8 9 9 10 11 15 17 17
18 18 17 16 17 18 18 18 17 16 15 14 14 13 12 11 11 11 10 10 11 11 11 11 10 10 10 9 9 9 10 11 10 8 8 10 8 6 6 7 6 6 5 4 5 4 2 3 3 3 4 5 6 7 7 8 8 7 7 7 8 8 9 9 9 8 6 5 5 5 6 6 7 5 5 7 7 8 10 10 10 11 13 14 16
18 18 18 18 17 18 18 18 18 17 16 16 14 13 13 12 12 12 11 11 11 11 12 11 11 10 10 11 10 10 11 12 12 10 10 9 8 7 7 8 7 5 5 5 6 6 5 4 4 4 4 5 6 7 7 8 8 7 7 7 7 7 8 8 8 7 6 5 4 5 5 5 6 6 6 7 7 9 10 9 9 10 11 12 13
18 19 19 19 18 18 18 18 19 19 18 17 15 14 14 13 13 12 12 12 12 12 12 12 11 11 11 13 13 12 15 14 12 11 11 10 9 8 7 7 6 4 5 6 5 6 5 4 5 5 4 6 6 6 7 7 7 7 6 6 6 7 7 7 7 7 6 5 4 4 5 5 5 5 6 6 6 9 10 9 9 9 10 11 12
19 19 21 20 19 18 18 18 19 20 20 19 17 15 15 14 13 13 13 13 13 13 12 12 12 11 11 13 13 14 14 13 12 11 10 10 9 9 8 7 6 5 6 6 6 6 4 3 5 5 5 6 6 6 6 6 7 7 5 5 5 5 6 5 6 6 5 5 4 4 4 5 6 4 5 5 6 7 8 8 9 9 9 10 10
21 19 20 20 20 19 18 18 20 21 21 20 19 17 16 15 14 13 13 13 13 13 12 12 11 10 11 11 11 12 12 11 12 11 9 9 9 9 8 6 5 6 7 7 7 6 3 3 4 5 5 6 6 6 7 6 6 6 5 4 4 4 5 5 5 5 5 5 4 4 5 4 5 6 4 4 6 7 5 5 7 8 9 8 9
22 21 20 21 21 21 20 19 20 21 21 21 20 19 17 15 14 13 13 13 13 13 12 11 11 10 11 11 10 11 11 11 12 11 11 10 9 10 9 7 6 8 8 7 8 5 3 4 3 4 5 5 6 6 6 7 6 6 5 4 3 4 4 5 5 5 4 4 4 4 6 6 5 6 4 2 3 5 4 4 5 7 8 8 8
23 22 21 21 22 22 21 21 20 20 21 21 21 20 18 16 15 14 15 15 14 14 12 11 11 11 11 11 11 11 11 12 13 12 12 11 10 11 9 7 6 7 8 7 6 4 5 5 4 4 4 5 7 7 7 7 6 6 5 4 2 2 4 4 4 4 4 4 5 5 5 6 6 7 6 5 3 1 2 2 4 6 7 7 7
23 23 22 22 21 21 21 21 20 20 20 21 20 20 18 17 16 16 16 16 15 15 14 13 12 12 12 12 11 12 12 13 13 12 13 11 10 10 9 8 5 5 7 6 4 4 5 5 4 5 5 6 7 7 7 6 6 5 5 5 2 1 2 3 3 3 3 3 4 5 5 6 5 7 7 7 5 3 3 2 1 3 5 6 7
23 24 23 22 22 21 21 21 21 21 20 20 21 20 19 18 17 17 17 17 18 16 15 15 14 14 13 12 12 12 12 13 13 11 11 11 10 10 9 9 7 6 6 4 4 6 4 4 5 5 6 6 5 5 5 5 5 5 5 5 3 2 1 1 2 1 2 2 4 5 5 6 6 6 7 7 6 6 6 7 5 3 2 4 5
24 24 25 24 23 23 22 22 22 22 21 21 21 20 19 19 18 19 18 18 19 17 14 14 14 14 13 12 12 12 12 12 12 12 12 12 12 11 9 7 7 7 4 2 3 4 4 4 5 5 5 4 4 4 3 3 5 4 4 5 4 4 3 2 1 1 1 2 4 5 6 7 7 6 6 6 6 6 6 7 8 7 4 2 0
25 25 26 25 24 24 23 23 22 23 23 22 21 20 20 19 18 18 17 17 18 15 14 13 13 13 12 12 13 12 12 12 12 12 13 13 12 12 10 7 7 6 3 1 2 2 4 6 5 5 4 3 4 4 2 3 4 2 3 5 4 4 4 2 2 1 2 3 4 5 7 8 9 8 6 6 6 6 7 6 7 7 6 3 3
26 26 25 25 25 25 24 23 22 22 23 22 21 21 20 20 18 16 15 14 14 14 13 12 12 12 12 13 13 12 12 12 11 12 12 11 9 10 9 6 6 4 2 1 2 2 4 4 4 4 4 4 5 3 1 3 4 3 2 3 4 3 3 2 1 2 3 3 5 5 5 6 8 9 7 6 6 6 6 6 6 6 6 4 3
26 27 26 27 26 26 25 24 23 22 22 22 21 21 19 19 18 15 13 12 11 10 10 10 10 10 11 12 11 12 13 12 10 11 11 8 6 6 4 4 4 3 1 1 2 3 3 4 4 3 3 5 4 2 2 2 3 4 2 2 3 3 1 2 2 2 2 2 6 6 3 4 8 8 7 7 6 5 5 6 6 6 5 4 4
27 27 28 28 26 26 26 25 24 22 21 22 22 20 19 18 16 15 13 11 10 9 10 10 10 9 11 11 10 11 13 12 10 10 9 6 5 5 5 4 2 1 1 2 2 2 3 3 3 2 3 5 6 2 0 1 1 2 3 3 2 2 1 1 1 1 0 2 6 5 3 4 6 5 4 5 5 4 4 4 4 4 4 4 3
27 27 28 27 26 25 26 25 24 23 22 22 22 21 19 18 17 15 14 13 12 11 11 11 10 10 10 10 9 9 9 10 10 9 7 6 6 6 5 2 0 0 1 2 2 2 2 2 2 2 3 3 4 5 3 1 1 0 2 1 0 1 1 2 2 1 1 1 3 4 4 5 4 4 4 3 3 3 4 3 2 2 2 2 2
27 27 26 27 27 25 26 26 24 23 22 22 22 22 20 19 18 16 15 14 12 11 11 11 10 9 8 8 8 8 8 9 8 7 6 6 6 6 4 1 0 1 1 1 1 1 1 2 2 2 2 2 2 4 5 2 2 1 2 0 1 1 2 1 2 1 1 1 1 1 4 6 3 2 1 2 1 2 3 4 4 2 1 1 1
27 27 26 27 27 26 26 26 25 23 23 23 23 22 21 19 19 17 16 15 13 11 10 10 9 8 7 7 7 6 7 7 6 6 6 6 5 5 3 1 1 2 1 1 2 1 1 1 1 1 1 2 2 3 4 4 2 1 1 1 1 1 0 1 2 2 2 1 1 2 1 2 2 1 2 5 3 1 1 2 4 5 3 2 2
28 27 27 26 26 27 26 26 26 24 23 23 23 22 21 20 19 19 18 16 14 12 10 10 10 9 8 8 7 6 7 6 5 6 6 5 5 4 3 0 2 2 2 2 2 1 2 1 1 1 1 1 1 3 3 4 5 1 3 1 1 1 1 1 1 1 2 2 2 1 2 3 2 1 2 5 4 3 4 3 3 6 5 4 4
29 28 28 26 26 26 26 26 26 25 24 24 24 23 22 21 20 20 19 17 14 12 11 11 10 10 9 8 7 6 6 6 6 6 6 5 5 3 3 2 2 2 2 3 2 1 1 2 2 1 1 2 1 3 3 3 4 2 1 1 1 1 1 1 1 1 1 1 3 3 5 5 3 2 3 5 4 5 6 4 5 7 5 4 6
29 28 28 27 27 26 26 27 27 25 25 25 25 24 23 22 21 20 19 18 15 13 12 12 10 9 9 8 8 7 6 5 5 6 6 5 5 3 3 3 2 2 2 3 3 3 3 3 2 2 2 2 2 2 3 3 2 2 2 2 2 3 1 1 3 3 2 3 3 4 6 6 6 5 6 5 5 6 6 6 8 8 6 5 7
Wind_Direction
115 120 129 132 132 133 130 133 131 132 138 136 132 130 130 127 126 126 125 124 124 123 123 121 118 118 116 111 105 99 96 93 92 89 87 87 86 83 82 80 78 78 74 73 72 65 59 58 57 52 49 49 53 57 64 76 85 90 90 90 92 88 90 92 91 85 81 87 84 79 79 81 87 88 87 88 89 89 91 102 111 113 117 118 119
117 119 125 122 125 127 125 131 132 132 136 135 132 133 132 130 129 127 125 123 124 124 125 123 121 119 115 111 104 99 95 92 90 88 86 84 83 81 81 81 77 75 72 69 68 66 62 60 59 56 53 52 52 54 57 63 73 81 87 95 98 87 81 84 89 93 85 88 90 80 77 83 89 89 88 91 93 89 91 112 120 113 116 120 121
115 120 121 112 120 123 123 128 131 132 131 130 132 134 133 130 129 127 125 124 124 125 126 126 124 121 115 110 105 98 93 90 88 86 85 83 82 80 79 79 77 74 72 68 65 63 60 57 57 58 54 50 50 49 52 56 59 58 64 75 88 88 82 72 69 81 82 80 84 80 80 84 89 91 88 90 93 88 91 102 109 116 120 121 122
118 122 118 112 119 119 121 126 127 128 129 129 131 133 133 129 127 126 125 125 125 124 125 125 125 121 115 111 106 98 92 90 87 85 84 82 82 78 73 73 74 74 72 67 61 57 52 50 51 55 55 49 46 43 44 50 50 48 51 41 42 73 84 71 56 52 55 65 75 64 61 74 94 94 87 91 96 91 95 100 105 113 118 122 123
120 119 115 113 118 118 119 122 122 125 127 127 128 130 130 130 128 126 125 126 127 126 125 124 123 121 116 112 106 99 94 90 86 83 81 79 79 77 71 68 71 72 70 65 60 56 51 47 46 53 57 50 46 43 39 43 44 48 49 34 21 28 51 58 52 34 34 59 52 9 44 72 102 94 89 95 99 95 97 104 107 108 114 124 125
119 119 118 119 121 122 121 121 121 122 124 126 128 128 128 131 130 129 129 129 129 127 125 122 122 120 117 112 104 99 94 90 86 85 82 78 78 78 74 69 70 70 65 60 55 57 54 48 42 46 53 48 46 41 35 39 40 44 47 42 28 12 10 26 36 27 15 32 21 27 63 76 105 98 97 101 99 97 98 105 109 108 114 123 124
120 123 122 123 124 124 124 125 123 122 125 126 129 130 131 132 133 134 135 133 130 126 122 121 120 117 113 109 102 98 94 91 90 87 84 82 82 81 79 73 68 64 60 54 49 49 48 42 32 34 44 42 42 35 30 35 35 38 43 43 39 32 25 18 29 27 8 11 4 42 73 72 105 105 105 105 98 97 98 103 107 111 114 117 122
124 123 123 125 126 123 125 128 126 127 128 127 128 131 133 135 137 138 139 136 132 128 125 122 119 115 112 107 103 99 95 93 91 88 88 89 83 78 75 71 64 55 52 48 44 43 41 38 27 25 33 32 34 31 27 32 33 37 43 43 41 42 49 51 47 34 23 31 7 28 69 72 98 103 102 103 99 99 100 103 108 115 119 119 125
128 125 126 128 129 125 125 130 131 129 129 130 129 131 133 135 138 140 140 138 135 134 131 127 121 116 113 109 105 101 97 95 92 91 96 90 76 69 65 63 60 52 47 45 42 44 46 48 35 22 26 27 26 24 24 26 29 35 41 44 45 39 38 58 64 45 26 43 18 25 62 68 90 101 100 104 103 98 97 104 110 116 123 126 131
129 128 129 130 135 131 124 128 133 133 133 134 134 133 134 135 137 139 140 139 138 137 135 133 129 123 118 114 109 103 100 97 94 96 95 79 70 64 62 60 57 52 44 41 41 44 46 49 41 20 23 23 16 13 18 23 22 26 29 36 42 34 28 45 61 47 22 37 31 34 54 64 91 105 102 105 110 105 97 109 120 124 125 125 130
128 129 130 132 137 134 129 131 135 139 137 136 139 136 136 139 140 138 138 141 140 139 138 137 135 129 124 118 111 106 103 98 95 96 84 68 62 60 64 62 55 50 38 32 31 31 31 33 26 11 20 16 6 4 13 25 19 14 15 21 30 29 24 29 47 52 54 70 66 70 61 74 99 105 102 106 116 115 108 117 128 129 127 124 127
128 130 133 136 139 136 136 138 138 141 140 139 142 138 135 140 145 140 137 141 139 139 138 136 135 129 119 112 107 104 101 95 93 86 74 62 54 58 62 56 51 45 28 25 26 24 24 28 24 12 15 3 350 354 5 22 17 5 6 12 21 26 18 16 33 49 78 76 80 97 93 98 110 108 100 106 118 121 117 119 125 126 130 129 129
130 133 137 136 140 141 142 144 143 143 141 142 144 141 137 137 144 142 137 138 136 140 141 137 133 125 114 108 106 103 100 94 89 72 64 62 55 59 59 51 51 41 20 21 21 17 21 22 21 12 8 353 338 342 354 13 12 356 2 6 12 26 26 21 23 29 72 70 63 82 90 105 121 119 98 107 119 130 133 128 126 127 133 133 131
134 135 138 138 142 145 148 150 149 148 144 144 146 144 143 141 143 143 137 134 138 143 137 132 132 126 117 112 111 110 108 99 91 72 52 61 62 56 53 49 47 36 14 14 13 12 18 16 13 5 359 352 339 338 351 10 13 356 0 5 9 23 34 43 30 30 63 70 66 79 91 109 133 135 102 114 119 133 145 143 138 133 137 138 135
134 136 139 140 144 148 152 155 153 150 147 145 148 147 147 146 144 145 140 135 141 139 128 127 129 127 124 122 124 125 118 108 103 82 28 47 55 41 43 42 30 20 6 3 8 13 15 12 7 5 11 10 358 359 13 31 40 25 11 15 18 22 40 68 57 40 50 54 69 94 112 124 142 146 121 124 124 131 143 148 148 143 145 149 145
133 136 139 142 146 150 153 157 155 151 148 147 151 151 148 148 149 150 146 141 143 134 124 126 126 126 130 132 131 129 122 120 117 82 28 27 36 24 24 24 16 14 8 4 11 15 14 16 17 28 45 48 41 38 47 53 55 51 36 31 30 31 52 80 80 51 43 40 62 93 137 151 151 154 148 132 132 136 140 148 152 154 156 158 155
135 137 140 144 149 153 153 157 158 155 152 151 153 153 149 148 149 150 151 148 148 140 133 134 135 134 133 133 129 128 131 135 113 85 55 26 32 23 12 10 12 14 11 12 18 22 19 22 30 53 64 62 54 47 50 51 52 53 45 38 46 52 52 68 91 78 53 44 58 81 157 167 160 161 155 136 143 142 137 146 155 161 161 161 163
138 140 140 144 151 154 153 156 160 161 157 156 156 155 151 149 151 154 155 149 147 151 150 146 139 137 136 138 138 137 140 137 120 103 84 28 30 21 8 7 9 9 8 12 22 31 29 33 47 64 68 64 55 48 43 40 41 40 41 38 45 54 43 63 83 52 62 54 54 53 162 171 169 166 161 143 147 148 140 143 154 165 166 167 168
142 142 143 145 152 153 153 155 159 161 159 158 159 159 157 153 156 160 157 146 147 158 156 145 138 145 148 149 147 144 154 167 173 114 45 357 14 14 358 359 3 3 6 13 19 30 37 48 68 71 67 63 54 50 46 41 36 28 38 43 35 37 39 77 56 3 53 42 41 62 90 163 172 164 162 158 148 152 148 142 155 167 167 171 173
146 146 148 148 150 153 154 156 158 161 161 161 162 164 165 158 159 162 159 155 158 164 155 147 152 159 159 157 147 141 183 209 196 134 1 334 336 340 342 348 356 359 3 17 18 27 44 58 76 74 65 60 52 49 45 39 33 27 40 44 29 29 28 74 48 354 66 26 30 69 68 133 166 162 162 168 153 158 162 146 154 164 167 176 181
153 151 151 150 149 153 156 157 159 161 163 165 164 166 167 162 166 167 162 163 164 168 160 156 164 165 163 170 161 159 190 205 193 216 241 249 284 303 338 340 342 356 5 23 26 34 48 59 74 71 60 55 49 45 37 30 26 26 37 34 16 15 2 8 29 18 128 45 39 69 56 104 155 164 162 169 162 163 173 159 160 164 171 180 184
157 154 152 152 151 155 158 159 160 161 166 166 164 166 167 165 172 171 166 168 169 173 169 168 177 177 178 188 182 183 195 207 206 218 229 219 264 302 342 337 340 0 13 34 39 46 52 58 69 67 59 54 51 36 17 19 18 16 22 17 6 360 349 349 3 10 1 102 86 43 37 81 136 160 162 171 171 169 179 174 173 172 175 183 183
158 156 154 156 154 159 161 162 161 162 168 167 165 166 168 169 173 174 170 172 174 178 179 182 190 188 193 199 194 201 205 224 238 232 244 245 249 269 305 326 345 9 18 41 46 54 60 61 64 62 60 52 51 27 351 3 4 358 359 358 356 349 344 343 352 354 337 99 157 310 346 68 138 161 168 174 174 174 189 189 188 184 179 183 183
161 158 157 158 158 163 163 163 164 165 169 168 168 169 173 174 174 176 175 176 178 182 187 192 196 195 207 208 197 208 213 233 258 255 256 254 253 236 244 278 277 1 11 14 50 56 49 44 46 33 30 29 15 348 338 342 341 341 342 343 347 344 343 340 343 341 332 336 264 285 331 306 191 176 176 179 179 182 193 195 199 200 190 189 189
164 161 161 161 161 168 167 168 170 170 173 170 169 173 177 177 177 180 180 179 182 187 192 197 200 199 210 213 206 214 219 231 238 251 262 257 263 240 227 234 234 243 285 241 152 106 276 349 17 346 341 346 339 340 343 338 334 338 340 340 342 340 337 333 331 329 327 327 275 279 322 298 239 216 198 191 192 194 200 199 199 203 202 202 198
170 166 164 166 168 172 172 174 175 173 175 173 172 177 180 181 181 184 184 184 186 192 196 200 203 200 209 216 216 219 221 231 230 240 260 258 253 241 230 227 227 223 217 223 188 195 246 282 314 330 330 333 338 338 336 330 330 334 338 339 336 335 330 326 326 320 319 320 295 297 311 302 257 239 225 209 205 201 208 211 206 202 203 209 209
174 172 166 169 173 176 176 177 177 177 181 178 176 180 183 186 185 187 188 189 190 196 200 204 205 200 209 217 222 228 226 233 234 234 247 252 255 253 253 253 246 235 212 218 214 241 265 300 314 326 326 328 329 324 323 321 324 326 331 334 329 327 323 320 321 314 312 309 295 298 307 303 261 241 235 223 215 210 211 216 216 211 204 205 211
174 177 171 172 177 180 181 182 180 182 186 181 181 185 187 190 189 192 196 196 197 202 205 204 203 202 210 219 227 235 237 241 239 238 246 252 264 278 278 277 285 288 269 259 240 237 281 295 302 306 314 317 315 316 316 314 318 320 326 333 326 320 320 319 321 316 312 308 293 298 306 300 263 238 239 232 222 218 216 219 219 218 211 205 206
177 181 178 178 181 183 184 187 185 186 188 185 188 192 192 196 195 197 202 203 206 210 212 207 207 212 215 217 225 236 243 250 253 251 251 258 273 286 284 283 294 296 290 291 275 245 278 278 285 294 305 306 310 314 310 314 321 323 327 332 326 325 331 330 329 323 314 311 298 298 305 297 273 241 238 239 232 223 221 225 222 219 217 211 208
180 182 183 182 184 185 187 190 191 189 190 190 195 197 197 201 202 203 205 207 213 217 220 218 218 220 220 219 222 232 240 250 265 263 250 259 273 276 282 286 292 290 284 295 295 274 273 273 277 292 305 303 311 313 312 321 324 328 331 334 337 340 341 337 332 324 315 312 300 292 305 306 282 247 234 240 238 234 230 229 227 222 222 219 216
182 184 186 186 186 188 190 192 194 192 193 196 198 201 202 204 206 207 209 210 216 223 226 226 227 226 228 223 215 223 236 238 254 263 250 258 267 266 276 285 295 294 292 302 298 287 283 281 269 287 305 306 314 316 318 324 325 334 340 343 351 348 341 339 334 328 324 315 304 295 294 298 288 260 242 243 239 240 240 234 227 222 225 225 223
185 187 189 189 190 192 194 193 195 193 196 200 199 202 205 206 207 209 213 213 217 223 227 228 230 230 232 227 213 219 235 234 243 251 248 260 267 263 272 278 284 291 293 302 297 289 276 281 275 280 300 311 315 316 320 321 325 338 344 351 355 349 345 344 339 336 335 321 310 304 289 287 290 278 259 254 242 237 239 238 231 223 226 226 224
189 190 191 191 194 196 197 196 197 197 199 203 202 203 207 208 209 212 215 215 217 223 227 229 228 228 230 233 224 223 235 238 244 247 246 258 261 260 270 273 279 285 282 287 287 268 246 263 277 274 295 310 312 321 324 322 332 342 345 352 355 352 350 345 342 340 343 337 324 314 298 285 280 274 276 270 246 239 242 244 242 232 228 226 226
191 191 194 195 195 196 199 198 199 200 202 205 205 206 209 210 212 214 217 217 221 225 229 231 230 228 230 238 237 236 246 246 244 246 247 252 256 260 264 271 277 265 265 273 270 263 256 268 280 286 306 308 314 330 328 327 335 339 343 347 356 358 348 348 350 345 352 357 345 334 320 309 290 264 270 272 244 241 246 245 241 236 234 230 224
194 192 194 196 198 198 199 200 201 202 204 205 207 209 211 213 215 216 219 221 225 229 233 235 234 231 231 240 241 241 245 240 237 245 250 252 257 262 262 271 274 261 268 268 256 260 270 285 285 300 319 317 328 332 324 330 331 331 339 340 356 358 342 354 358 346 2 13 4 9 357 334 328 306 272 258 247 243 244 244 239 232 233 231 221
195 195 195 196 201 201 201 202 202 204 205 205 207 211 212 214 218 220 223 225 228 232 234 236 236 233 232 235 234 234 234 229 236 243 247 254 259 263 266 265 257 258 262 254 257 264 270 290 298 314 329 330 329 325 321 326 324 324 328 331 354 351 340 358 0 357 11 17 16 32 37 18 355 346 322 254 245 238 226 235 241 236 233 229 222
194 197 197 198 202 203 204 204 203 203 204 205 207 211 214 215 219 222 226 228 230 232 232 233 236 235 233 232 229 232 232 232 237 240 247 257 257 258 261 257 258 264 258 245 256 273 288 296 306 321 333 327 313 312 314 313 310 315 316 324 346 335 339 358 357 6 11 11 18 33 48 46 32 18 8 309 241 230 231 243 243 240 238 234 223
195 197 198 199 202 203 206 208 207 204 202 204 207 211 214 216 220 223 227 229 230 232 232 232 234 233 232 233 230 229 230 232 234 239 247 251 254 257 257 257 260 261 256 250 257 284 304 303 315 325 328 315 303 305 304 304 305 303 302 310 339 330 338 356 357 8 9 14 23 27 47 51 43 41 40 42 58 192 239 273 252 236 236 237 227
194 197 197 198 201 203 205 208 210 208 205 205 207 211 214 217 221 223 225 228 229 230 232 231 231 234 234 231 229 226 227 230 230 236 244 248 254 258 256 250 231 228 246 246 261 294 305 312 321 321 320 308 301 300 293 291 293 293 295 302 314 301 319 348 351 6 10 18 32 30 43 52 44 43 46 47 48 50 62 56 262 230 229 233 225
194 195 196 197 199 202 203 205 207 208 207 205 206 209 213 217 220 223 224 225 227 228 229 231 234 236 235 232 228 226 228 230 230 233 241 248 253 255 258 251 227 226 237 228 280 305 321 336 323 320 321 311 303 290 282 284 290 295 296 288 259 222 227 341 339 8 34 36 48 44 44 47 46 46 44 44 40 33 48 62 59 81 184 224 232
195 194 196 197 198 200 201 202 203 205 208 206 206 207 209 213 216 220 222 219 223 227 228 232 236 235 236 236 230 228 230 231 233 235 239 247 256 258 256 248 231 229 220 207 306 320 342 337 321 320 311 305 308 287 270 282 284 291 294 282 245 204 180 173 202 69 60 78 77 63 53 43 36 41 46 49 46 34 42 59 56 63 93 122 318
194 195 197 197 198 200 201 203 201 203 207 207 207 208 210 212 215 219 221 217 220 226 229 232 235 235 236 235 231 231 231 232 236 242 246 251 258 254 242 233 226 218 191 184 296 320 331 322 316 311 295 289 299 293 294 267 268 292 315 308 281 201 177 214 221 122 68 77 85 69 59 49 32 27 32 43 52 46 42 57 60 60 73 80 66
194 195 197 197 198 200 201 203 202 203 206 207 208 210 212 215 218 221 221 223 224 225 230 232 233 232 231 229 229 227 226 227 230 239 247 248 249 247 238 229 218 202 178 231 279 305 312 304 292 296 296 286 268 259 278 267 284 329 325 301 289 216 167 209 239 88 58 67 83 68 53 51 38 24 22 32 46 55 50 54 62 62 66 70 71
194 195 196 197 198 200 200 201 202 204 206 206 208 211 213 215 219 221 221 228 229 223 223 227 228 225 224 225 224 227 230 226 224 236 243 238 235 236 218 197 202 208 232 256 288 299 285 265 271 285 287 289 278 212 160 237 290 332 311 278 293 292 160 157 144 87 52 101 110 90 70 73 53 26 15 25 31 51 61 55 53 58 65 68 81
195 195 195 196 198 199 199 199 201 204 206 206 207 210 212 213 216 219 222 224 221 215 213 219 223 220 224 227 224 233 239 231 226 234 233 214 199 195 180 176 202 236 255 266 280 280 271 259 272 275 256 283 306 320 150 208 275 326 312 307 309 319 355 1 49 111 82 160 140 111 75 84 80 57 30 28 24 34 51 56 54 52 55 59 73
196 196 196 197 198 199 198 198 200 203 205 205 205 206 208 210 212 213 216 216 215 216 218 223 225 224 228 223 216 223 226 219 218 217 205 186 176 172 169 165 132 213 231 264 270 266 285 283 278 278 256 271 302 304 291 245 141 255 295 296 263 333 14 330 331 113 302 337 125 118 91 75 88 126 109 53 39 31 16 22 38 38 42 43 53
196 195 196 196 197 198 199 199 199 202 204 205 204 204 205 209 212 212 213 215 219 221 219 221 221 219 219 202 193 198 196 200 206 196 180 171 166 164 168 159 125 249 222 251 293 311 332 327 301 295 291 283 282 285 286 272 156 185 272 225 119 30 30 351 356 47 300 12 47 176 128 92 62 147 112 0 49 69 7 341 331 317 305 337 327
197 195 196 197 196 197 200 200 200 201 203 204 203 203 205 208 211 212 214 216 222 222 213 214 213 203 198 189 183 179 180 191 197 183 166 160 162 166 166 153 293 277 247 260 275 316 11 355 317 319 300 286 281 279 295 310 305 149 167 238 98 89 166 86 36 352 302 277 235 240 176 62 353 321 315 310 316 41 318 282 310 306 280 269 274
198 197 197 197 196 197 199 199 201 202 201 202 202 202 205 208 210 210 212 216 220 221 214 212 207 193 190 191 184 176 175 177 177 166 158 164 170 167 161 151 308 278 257 269 264 29 19 338 256 214 210 253 291 286 291 308 312 31 107 179 166 203 243 126 105 281 314 313 264 251 286 281 280 245 263 286 302 317 289 261 297 294 276 275 270
198 198 197 197 196 197 198 199 201 201 200 200 200 202 203 205 209 209 209 213 215 216 217 211 200 188 188 187 179 177 176 170 165 158 157 167 166 170 198 246 297 273 266 289 298 338 318 254 238 232 229 248 268 274 280 294 309 352 85 187 222 251 281 284 245 231 137 229 257 284 289 286 298 292 279 282 281 292 295 285 284 276 264 280 278
198 197 197 197 197 196 198 199 199 199 199 200 200 200 200 201 205 206 207 210 209 206 210 208 195 185 188 188 180 178 177 175 173 164 163 170 166 184 234 253 264 243 239 268 267 266 247 218 210 214 212 227 236 250 272 281 291 295 247 215 247 265 281 314 313 336 325 267 278 295 299 311 318 307 303 285 242 247 259 243 249 256 250 267 275
Height
808 809 812 812 814 815 816 816 817 818 818 819 820 821 822 824 825 827 828 829 831 831 832 834 835 836 837 837 838 839 839 840 840 841 841 841 841 841 842 842 842 842 842 842 843 843 843 843 843 843 842 842 841 841 841 841 841 841 840 840 840 840 839 839 839 839 838 838 838 838 838 837 837 837 838 838 839 840 840 840 840 840 841 841 841
809 811 813 814 815 816 818 818 820 820 820 820 821 823 824 826 827 828 829 831 832 832 833 835 836 838 838 839 839 840 841 841 842 842 842 842 842 842 842 843 843 843 843 843 844 844 844 844 844 843 842 842 842 842 842 842 842 842 841 841 841 840 840 840 840 840 839 839 839 839 838 838 838 838 839 839 840 840 841 841 841 842 842 842 842
809 812 814 815 816 816 818 819 820 821 821 821 823 825 826 827 828 829 830 831 833 834 835 836 838 839 839 840 841 841 842 842 843 843 843 843 843 843 843 843 844 844 844 845 845 845 845 845 845 844 843 843 843 843 842 843 843 843 843 843 842 841 840 840 841 840 840 840 840 839 839 839 840 840 840 840 840 841 841 842 842 843 843 843 844
809 812 814 816 817 817 819 819 820 821 822 822 824 826 826 828 828 830 831 832 834 835 836 837 839 839 840 841 841 842 843 843 844 844 844 844 844 844 844 844 845 845 846 846 846 846 846 846 846 845 844 844 844 843 843 843 843 844 843 844 843 842 841 841 841 841 841 841 840 840 840 840 841 841 841 841 841 842 842 842 843 844 844 844 845
810 812 815 817 818 818 818 820 820 821 823 823 824 826 827 828 829 830 831 833 835 836 837 838 840 840 841 842 842 843 844 844 844 845 845 845 845 844 844 845 846 846 847 847 847 847 847 847 847 846 845 845 845 845 845 844 845 844 844 844 844 843 842 841 841 841 842 842 841 841 841 841 841 842 842 842 842 842 843 843 844 845 845 845 846
810 812 815 817 818 819 819 820 822 822 823 823 825 826 827 829 830 831 833 835 836 837 838 839 841 841 842 842 843 844 844 845 845 846 845 845 845 845 845 846 847 847 848 848 848 848 848 848 847 847 846 846 846 845 845 845 845 845 845 844 844 843 843 842 841 842 842 843 843 842 842 842 842 843 843 844 843 843 843 844 844 845 847 847 847
810 812 815 817 819 819 820 821 822 824 825 825 826 827 828 830 832 833 834 836 837 838 839 841 842 842 843 843 844 845 845 846 846 846 846 846 845 845 846 847 847 848 849 849 849 849 849 849 848 847 847 847 846 846 846 846 846 845 845 844 844 843 842 842 842 842 842 843 844 843 843 843 844 844 844 845 845 844 844 844 845 846 847 848 848
811 813 815 818 820 821 822 822 824 825 827 827 828 828 830 831 833 834 835 837 838 839 840 841 842 843 844 844 845 846 846 847 847 846 846 845 845 846 847 848 848 849 850 850 850 850 850 849 848 848 848 847 847 847 847 847 846 846 845 845 844 843 843 842 842 842 842 843 844 844 844 844 844 845 846 845 846 846 845 845 846 847 848 849 850
812 814 816 819 820 821 823 824 825 827 827 828 829 830 831 833 834 835 836 837 838 840 841 842 843 844 844 845 845 846 847 847 847 847 846 846 847 847 848 849 849 850 850 850 849 849 849 849 848 848 848 848 847 847 846 846 846 845 845 845 845 844 843 842 842 842 841 842 844 845 845 845 845 846 847 846 846 847 846 847 847 848 848 849 850
812 815 817 819 820 821 823 825 826 827 828 829 830 831 833 834 835 836 837 838 839 840 841 842 843 844 845 845 846 847 848 848 848 847 846 847 848 849 849 849 849 850 850 849 848 848 848 848 848 847 847 848 847 847 846 846 845 845 845 845 845 845 844 843 842 842 842 841 842 844 845 845 846 847 847 847 847 847 848 848 848 849 849 849 850
812 815 818 820 821 822 824 826 827 829 829 830 832 832 834 835 836 837 838 839 840 841 842 843 844 845 845 846 847 848 848 848 848 847 847 848 849 850 850 850 850 850 849 848 847 847 848 848 848 847 847 848 848 847 847 846 846 845 845 845 845 845 844 843 842 842 842 841 841 841 844 845 846 848 847 848 848 848 849 849 849 849 850 850 851
813 815 818 820 821 823 825 827 828 830 830 832 833 833 835 835 837 838 839 840 841 842 843 844 844 845 846 846 847 848 848 849 848 847 848 849 850 850 851 851 850 850 849 848 848 848 847 847 847 847 847 847 848 848 848 847 847 846 846 846 845 845 845 844 844 843 842 842 841 840 842 844 846 848 847 848 848 849 849 849 850 850 851 852 852
813 816 818 821 822 823 825 827 829 830 831 832 833 834 835 836 838 839 840 841 842 843 843 844 845 845 846 847 847 848 848 849 849 848 849 849 850 851 851 851 850 850 849 848 848 848 847 846 845 845 846 846 847 847 848 847 847 847 846 846 846 845 845 844 845 844 843 842 841 841 842 844 846 847 848 848 848 849 849 849 850 850 852 852 853
813 816 818 821 822 824 825 828 829 830 832 832 834 835 836 837 838 839 841 842 843 843 844 845 845 846 846 847 848 848 849 849 849 848 849 850 850 850 850 850 850 850 849 848 847 847 847 846 845 845 845 846 846 847 847 847 847 846 846 846 846 845 844 844 845 845 843 842 841 841 842 844 846 847 848 848 848 849 849 850 850 851 852 853 854
813 815 818 821 822 824 826 828 829 831 832 833 834 835 836 838 838 840 841 842 843 844 845 845 845 846 846 847 848 848 849 849 849 848 849 850 850 850 850 850 850 850 849 848 847 847 847 846 846 845 846 846 847 847 847 848 847 846 846 846 845 845 844 844 845 844 843 842 842 842 842 843 845 847 847 848 849 849 849 850 850 851 852 853 854
813 816 819 821 823 825 826 828 830 831 832 833 834 835 837 838 839 840 841 842 843 844 845 845 845 846 846 847 848 848 849 849 849 849 849 849 850 850 850 850 850 850 850 849 847 847 846 846 846 846 847 847 847 848 848 848 847 847 846 846 845 844 844 844 844 844 844 843 843 843 843 844 845 847 847 848 849 849 850 850 850 851 852 853 854
814 817 819 821 823 825 827 829 830 831 832 834 835 836 837 838 839 840 841 842 843 844 845 845 845 846 846 847 848 848 849 849 849 849 849 849 850 850 850 850 850 851 850 849 848 847 847 846 847 847 847 847 847 848 848 848 847 847 846 845 845 844 844 843 843 844 844 844 843 844 845 846 846 848 847 847 849 850 850 850 851 851 852 853 854
815 818 819 822 823 825 827 828 830 831 832 833 835 836 837 838 839 840 841 842 843 844 845 845 846 846 847 847 848 848 849 849 849 849 849 850 850 851 850 850 850 850 849 848 848 848 848 847 847 847 846 846 847 847 847 847 846 846 845 845 844 844 844 843 843 844 844 844 844 844 845 846 847 848 848 847 848 850 850 851 851 851 852 853 854
816 818 820 822 823 826 827 828 830 831 833 834 835 835 837 838 839 840 841 842 843 844 845 845 846 846 846 847 847 848 849 849 849 849 849 850 850 850 850 850 850 849 848 847 847 847 848 847 847 847 846 846 846 846 846 846 845 845 844 844 844 843 843 844 844 843 843 844 844 844 845 846 846 847 848 848 848 850 851 851 851 851 852 853 854
816 818 820 822 823 826 827 829 830 831 833 834 834 835 836 837 839 841 841 842 843 844 845 845 845 846 846 846 847 848 849 849 849 849 849 849 849 850 850 849 849 848 848 847 847 847 847 847 847 847 846 846 846 846 845 846 845 844 844 844 844 844 843 844 844 843 843 843 843 844 845 845 846 847 848 849 849 850 851 851 851 851 852 853 854
817 818 820 822 823 826 827 829 830 831 832 833 834 835 836 837 839 840 841 842 843 844 844 845 845 845 846 846 847 848 848 849 849 849 849 849 849 849 849 849 848 848 847 847 846 846 846 846 846 846 846 846 846 845 845 845 845 844 845 844 844 844 844 844 843 843 843 843 843 844 845 845 847 848 848 850 850 850 850 851 852 852 852 853 855
816 818 820 822 824 826 827 829 829 831 831 832 834 835 836 837 839 840 841 842 843 844 844 845 845 845 846 846 847 847 848 848 848 848 849 849 848 848 848 848 847 847 847 846 846 846 846 846 846 846 846 846 845 845 845 844 844 844 844 844 844 845 844 843 843 843 843 843 843 843 844 845 846 848 848 850 850 850 850 851 851 852 853 853 855
815 818 820 822 824 826 827 828 829 830 831 832 834 835 836 837 839 840 841 842 842 843 844 844 845 845 845 846 846 847 847 847 847 847 847 847 847 847 847 847 847 847 847 846 846 846 846 846 846 847 846 846 846 845 845 844 844 844 844 844 844 844 843 842 842 842 843 843 843 843 844 845 846 847 848 849 849 850 851 851 852 852 852 853 855
815 817 819 822 823 825 826 827 829 830 831 832 833 835 836 837 838 839 840 841 842 842 843 843 844 844 844 845 846 846 846 846 845 846 846 847 846 846 846 847 846 846 846 846 846 846 846 846 846 846 846 846 846 846 846 845 844 844 844 843 843 843 843 842 842 842 843 843 843 843 844 845 845 846 847 847 848 849 850 852 852 852 852 853 854
814 816 819 821 823 825 826 827 829 829 831 832 833 834 835 837 837 839 840 840 841 841 842 843 843 843 843 844 844 844 845 844 844 844 844 845 845 845 846 846 845 845 846 846 846 845 845 845 846 846 846 845 846 846 846 845 844 844 844 843 843 843 843 843 842 842 843 843 843 843 844 844 845 845 846 847 847 849 850 851 852 852 852 853 854
813 815 817 820 822 824 825 826 828 829 830 831 832 834 834 836 836 837 838 838 839 840 841 841 841 842 842 843 843 843 844 844 844 844 844 844 845 845 845 845 844 844 845 845 845 845 845 845 845 846 846 846 846 846 846 846 845 845 844 844 844 844 843 843 843 843 843 843 843 843 844 844 845 845 846 846 847 848 849 849 850 851 852 852 853
812 813 816 820 821 823 825 826 827 829 830 831 832 833 834 835 835 836 837 837 838 839 839 840 840 841 842 843 843 843 843 844 844 844 844 844 844 844 845 844 843 843 844 844 845 845 846 846 846 846 846 846 847 847 846 846 846 846 845 845 845 844 844 843 843 843 843 843 843 843 844 844 844 845 845 846 847 847 848 848 848 849 850 852 853
811 813 815 818 820 822 824 825 827 828 829 831 831 832 833 834 835 835 836 836 837 838 838 839 840 841 841 842 842 843 843 843 843 843 844 843 843 843 843 843 843 843 843 844 844 845 845 846 846 846 846 847 846 847 846 847 847 846 846 845 845 844 844 844 843 843 843 843 842 842 843 844 844 845 845 846 846 847 847 847 847 847 849 850 851
811 813 814 816 819 821 823 824 826 827 829 830 831 832 833 834 834 835 835 836 837 837 838 839 840 840 841 841 842 842 843 843 842 843 843 843 843 843 843 844 843 843 843 844 844 845 845 846 846 846 846 847 846 847 846 846 847 846 846 846 845 844 844 844 843 843 843 843 843 842 843 843 843 844 845 845 846 846 847 846 846 847 848 849 850
811 812 814 815 817 819 821 823 824 826 828 829 830 831 832 833 834 834 835 836 836 837 838 838 839 840 840 841 841 842 842 842 842 843 843 843 843 843 843 844 844 843 844 844 844 845 845 845 846 846 846 846 846 846 846 846 846 846 845 845 845 844 844 844 843 843 843 843 843 842 843 843 843 844 844 845 845 846 847 847 847 848 848 848 849
810 812 813 814 816 818 820 821 824 825 827 828 829 830 831 832 833 833 834 834 835 836 837 838 838 839 839 840 840 841 842 842 842 843 843 844 843 843 844 844 844 844 844 845 845 845 845 846 846 846 846 846 846 845 846 846 845 845 845 844 844 844 844 844 843 843 843 843 843 843 842 842 843 843 844 844 845 845 846 847 847 847 848 848 849
808 810 812 814 815 817 819 820 823 824 826 827 828 829 830 831 832 832 833 833 834 835 836 837 837 838 839 839 840 840 841 841 842 843 843 843 843 843 844 844 844 845 845 845 845 845 845 845 845 845 845 845 846 845 846 845 845 844 844 844 844 844 844 844 844 843 843 843 843 843 842 842 842 843 843 844 845 845 845 845 846 847 847 848 848
806 809 811 812 814 816 818 819 821 823 824 826 827 828 829 830 831 831 832 833 833 834 835 836 836 838 838 838 839 839 840 841 842 842 842 843 843 843 843 844 844 845 845 845 845 845 844 844 845 845 845 845 845 845 846 845 844 844 844 844 844 844 844 844 844 843 843 843 842 843 842 842 841 842 843 843 844 845 844 845 845 845 846 847 847
804 807 809 811 813 814 816 818 820 822 823 825 826 827 828 829 830 830 831 832 833 833 834 835 836 837 837 837 838 839 840 840 841 842 842 842 842 842 843 843 844 844 844 844 844 844 844 843 844 845 845 845 845 845 845 845 845 845 845 845 844 844 844 843 843 843 843 842 842 842 842 841 841 841 841 842 843 844 844 844 844 844 844 845 846
802 804 807 809 812 813 815 817 819 821 822 823 824 826 827 827 828 829 830 831 832 832 833 834 835 836 837 836 837 838 839 840 841 841 841 842 842 842 842 843 843 844 844 844 844 844 844 843 844 845 845 845 845 845 845 845 845 845 845 845 844 844 843 842 842 842 841 841 842 842 841 841 841 841 840 841 841 842 843 842 843 843 843 844 844
800 803 806 808 811 812 814 816 817 819 820 822 823 824 826 826 828 828 829 830 831 832 832 833 834 835 836 836 836 837 838 840 840 840 841 841 841 841 841 842 842 843 843 843 844 844 844 844 844 844 845 845 845 845 844 844 845 845 844 844 844 844 843 842 841 841 841 841 841 841 841 840 840 840 840 840 840 840 841 841 841 842 842 842 843
798 801 803 806 808 810 812 814 815 817 818 820 821 823 824 825 827 828 829 829 830 831 831 832 833 834 835 835 835 836 837 838 839 839 839 840 841 841 841 841 842 841 842 843 843 844 843 843 844 844 844 845 844 844 843 843 844 843 843 843 843 843 842 842 842 841 841 841 840 840 840 840 840 839 839 839 839 839 840 840 840 841 841 841 842
796 799 801 804 806 808 810 811 813 815 816 818 820 822 823 824 825 826 828 828 828 829 830 831 832 832 833 833 834 835 836 836 837 837 838 839 840 840 840 841 841 840 841 842 843 843 843 843 843 843 843 844 843 843 843 843 842 842 842 842 842 843 842 842 842 842 841 840 840 840 840 840 840 839 839 839 840 840 839 839 840 840 841 841 841
793 796 799 801 803 805 807 809 811 813 814 816 818 820 821 823 824 825 826 826 827 827 828 829 830 831 831 832 832 833 834 835 836 836 837 838 839 839 840 840 840 840 840 842 842 842 842 843 843 843 842 842 842 842 842 842 841 841 841 841 841 842 842 842 842 842 841 841 840 840 839 840 840 840 840 840 840 840 839 839 840 840 841 841 842
791 793 796 799 801 803 805 807 809 810 812 814 815 817 819 820 822 823 824 824 825 826 827 827 828 829 830 830 831 832 833 834 835 836 836 837 838 839 839 839 839 839 840 841 841 842 842 842 842 842 842 841 841 841 841 841 841 840 840 840 840 841 841 841 841 841 841 841 840 840 840 840 840 840 840 840 840 840 839 840 840 840 840 841 841
788 791 794 796 798 800 802 803 806 808 810 811 813 814 816 818 819 820 821 822 823 824 825 826 826 827 828 829 830 831 832 833 834 834 835 836 836 837 838 838 837 838 839 840 841 842 842 843 842 842 842 841 841 840 840 841 840 840 840 839 838 839 840 841 841 841 840 840 840 841 841 841 841 841 841 841 840 840 840 840 840 840 841 841 842
785 788 790 793 796 797 799 801 803 805 807 808 810 812 813 815 816 818 819 820 821 822 823 824 825 826 827 828 828 830 831 831 832 833 834 834 834 835 836 836 836 837 838 839 841 841 842 842 842 842 841 841 840 840 840 840 839 838 838 838 837 837 839 839 839 840 840 840 840 840 841 842 843 842 842 841 841 841 841 841 841 841 841 842 842
781 785 787 790 793 794 796 798 800 802 804 806 808 810 811 813 815 816 817 819 819 820 822 822 824 825 826 826 827 828 829 830 831 832 832 833 833 834 834 835 836 837 838 839 840 840 841 842 842 842 841 840 840 839 840 839 838 837 838 840 838 836 839 840 839 840 840 840 841 841 842 842 844 844 843 842 842 842 841 841 841 841 841 842 841
778 780 783 786 788 791 793 795 797 799 801 804 806 808 810 811 813 815 816 817 818 819 820 821 822 823 824 825 825 826 827 828 829 830 831 832 832 833 834 835 837 838 838 839 839 839 840 841 841 841 841 840 838 838 839 839 838 838 838 839 837 836 841 841 839 840 841 841 841 842 842 843 844 845 845 844 843 843 842 842 841 841 841 842 842
773 776 779 782 784 787 790 792 794 797 799 801 804 806 808 810 812 813 815 816 817 818 819 820 821 822 823 823 824 825 825 826 828 829 830 831 831 832 834 835 836 838 838 838 839 839 840 840 840 841 841 841 839 838 839 839 839 839 838 838 839 841 843 841 839 841 841 840 841 842 842 842 844 846 846 845 845 844 843 843 842 842 842 842 842
769 772 775 778 781 784 787 789 791 794 797 799 801 804 806 808 810 811 813 814 815 816 816 818 819 820 821 822 823 823 824 825 827 828 829 830 831 832 834 835 836 837 838 839 839 839 840 840 840 841 841 841 840 839 838 838 839 840 839 839 841 842 841 839 840 842 841 839 839 841 842 842 843 844 845 845 845 845 844 844 843 843 842 842 842
765 769 772 775 778 781 784 786 789 791 794 796 799 801 803 805 807 809 810 812 813 813 815 816 817 818 819 821 822 822 823 825 826 828 828 829 831 832 834 835 836 837 838 839 839 839 839 840 840 841 841 841 841 840 838 838 838 839 839 839 840 840 840 839 839 841 842 840 839 840 840 841 843 843 844 844 844 845 845 845 844 843 843 843 842
762 765 768 771 774 778 781 783 786 788 791 794 796 798 800 803 805 807 808 810 811 811 813 814 815 817 818 820 821 822 823 824 826 827 827 829 830 832 833 834 835 836 837 838 838 838 839 840 840 841 841 841 841 841 840 838 838 838 840 840 840 840 840 839 839 840 841 841 839 838 838 840 841 842 843 843 843 844 844 845 845 844 843 843 843
759 762 765 768 771 774 777 780 783 786 788 791 793 795 798 800 803 805 806 808 809 810 811 812 814 815 817 819 820 821 823 824 825 826 827 829 830 831 832 834 835 836 837 837 837 838 838 839 840 840 840 841 841 841 841 840 839 838 840 840 840 840 839 839 840 840 839 841 840 837 837 838 839 841 843 843 843 844 844 844 844 844 843 843 843
755 758 761 764 768 771 774 777 780 783 785 788 790 793 795 798 800 802 804 806 807 808 810 811 813 814 816 818 819 821 822 823 824 825 827 828 830 831 832 833 834 835 836 836 836 837 838 839 839 839 839 840 841 841 841 841 840 840 840 841 840 839 839 839 839 839 839 840 840 837 836 836 837 839 840 841 842 843 843 843 843 843 842 843 842
751 755 758 761 764 767 770 774 776 779 782 785 787 790 792 795 797 800 802 804 805 807 808 809 811 813 815 816 818 819 820 822 823 824 826 827 829 830 831 832 833 834 835 836 836 836 837 838 838 839 839 839 840 840 840 840 840 840 840 840 840 838 838 839 838 839 839 839 839 837 836 835 837 838 838 839 840 841 842 842 842 841 841 842 842